User: anonymous   Login
Location: Unspecified
(0.0000°N, 0.0000°E)
Time: 05:45:53
(UTC+00:00)
Language:

SSETI-EXPRESS - Orbit

View from above orbital plane
View from above orbital plane
View from above satellite
View from above satellite

Ground track
Ground track

The orbit data is extracted from the following two-line orbital elements,

1 28894U 05043E   19083.17511842  .00000032  00000-0  15578-4 0  9998
2 28894  97.9672 223.2788 0015762 288.5869  71.3621 14.61567861714548
Epoch (UTC): 24 March 2019 04:12:10
Eccentricity: 0.0015762
inclination: 97.9672°
perigee height: 677 km
apogee height: 699 km
right ascension of ascending node: 223.2788°
argument of perigee: 288.5869°
revolutions per day: 14.61567861
mean anomaly at epoch: 71.3621°
orbit number at epoch: 71454

The dashed part of the orbit path shows where the satellite is in the earth's shadow,  

DLR